�N����,����,�~����,�C��,���x,�C��,����,���ϕ���,�ő�u�ԕ���,�ő厞����,���˗�,�I�_���x,�n�����x,�ő啗���N��,DTYPE
"21/06/01","00:10",0.0,18.3,71.7,1009.3,334.2,2.5,4.0,335.2,0.00,13.1,130.0,"00:01:12",1
"21/06/01","00:20",0.0,18.1,72.6,1009.5,329.5,2.5,3.6,333.6,0.00,13.1,130.0,"00:12:08",1
"21/06/01","00:30",0.0,18.0,73.3,1009.3,330.1,3.0,4.4,341.5,0.00,13.2,130.0,"00:27:52",1
"21/06/01","00:40",0.0,17.9,73.8,1009.3,331.1,3.0,4.9,336.2,0.00,13.2,130.0,"00:32:16",1
"21/06/01","00:50",0.0,17.8,74.0,1009.0,334.9,2.3,5.5,339.8,0.00,13.1,130.0,"00:45:04",1
"21/06/01","01:00",0.0,17.5,74.2,1009.0,335.0,1.8,3.3,346.3,0.00,12.9,130.0,"00:53:44",1
"21/06/01","01:10",0.0,17.4,75.0,1009.3,329.0,2.2,4.5,343.1,0.00,13.0,130.0,"01:04:56",1
"21/06/01","01:20",0.0,17.6,74.8,1008.8,326.9,3.1,4.9,340.5,0.00,13.1,130.0,"01:11:20",1
"21/06/01","01:30",0.0,17.5,74.8,1008.8,327.2,2.8,5.2,343.8,0.00,13.0,130.0,"01:26:40",1
"21/06/01","01:40",0.0,17.3,74.8,1008.8,327.9,2.7,4.7,335.1,0.00,12.8,130.0,"01:30:16",1
"21/06/01","01:50",0.0,17.1,75.4,1009.5,332.1,2.7,4.2,326.0,0.00,12.8,130.0,"01:46:32",1
"21/06/01","02:00",0.0,17.0,76.0,1008.8,333.9,3.0,4.9,340.4,0.00,12.8,130.0,"01:50:24",1
"21/06/01","02:10",0.0,17.0,76.4,1009.3,330.8,3.4,5.7,338.0,0.00,12.9,130.0,"02:01:44",1
"21/06/01","02:20",0.0,16.7,76.9,1009.0,330.6,3.5,5.0,335.3,0.00,12.7,130.0,"02:13:04",1
"21/06/01","02:30",0.0,16.6,77.3,1009.3,333.8,2.7,5.0,342.0,0.00,12.7,130.0,"02:20:40",1
"21/06/01","02:40",0.0,16.6,77.6,1009.3,335.3,3.0,5.2,334.7,0.00,12.7,130.0,"02:31:44",1
"21/06/01","02:50",0.0,16.3,78.0,1009.3,330.7,2.2,3.9,324.9,0.00,12.5,130.0,"02:48:00",1
"21/06/01","03:00",0.0,16.1,78.5,1009.5,334.0,2.1,4.4,344.0,0.00,12.4,130.0,"02:54:40",1
"21/06/01","03:10",0.0,16.1,78.8,1009.5,332.9,2.6,4.7,341.5,0.00,12.5,130.0,"03:01:52",1
"21/06/01","03:20",0.0,15.8,78.8,1009.3,327.5,2.2,3.5,325.3,0.00,12.2,130.0,"03:18:24",1
"21/06/01","03:30",0.0,15.9,78.0,1009.3,331.3,2.8,4.1,338.4,0.00,12.1,130.0,"03:21:52",1
"21/06/01","03:40",0.0,15.7,77.3,1009.7,331.8,2.2,3.5,336.3,0.00,11.8,130.0,"03:36:32",1
"21/06/01","03:50",0.0,15.4,77.5,1009.7,340.1,1.8,3.3,336.8,0.00,11.5,130.0,"03:49:36",1
"21/06/01","04:00",0.0,15.5,79.1,1009.5,339.5,1.8,4.5,339.6,0.00,11.9,130.0,"03:50:16",1
"21/06/01","04:10",0.0,15.1,79.8,1009.7,330.2,2.1,3.6,319.9,0.00,11.7,130.0,"04:03:04",1
"21/06/01","04:20",0.0,14.8,79.6,1009.7,334.9,1.8,3.4,343.2,0.00,11.4,130.0,"04:19:52",1
"21/06/01","04:30",0.0,14.7,78.6,1009.5,332.7,2.1,3.1,319.6,0.00,11.1,130.0,"04:20:32",1
"21/06/01","04:40",0.0,14.7,77.7,1010.0,331.2,2.2,3.4,340.8,0.00,10.9,130.0,"04:33:04",1
"21/06/01","04:50",0.0,14.7,77.4,1010.0,331.9,2.2,3.9,333.2,0.00,10.8,130.0,"04:49:20",1
"21/06/01","05:00",0.0,14.7,77.8,1010.2,340.6,2.2,3.9,338.8,0.00,10.9,130.0,"04:51:44",1
"21/06/01","05:10",0.0,14.7,78.2,1010.2,333.5,2.6,3.7,337.0,0.00,11.0,130.0,"05:08:56",1
"21/06/01","05:20",0.0,14.9,78.5,1010.2,332.1,2.7,4.8,329.3,0.00,11.2,130.0,"05:19:52",1
"21/06/01","05:30",0.0,15.3,78.5,1010.7,328.8,3.4,5.8,330.8,0.00,11.6,130.0,"05:26:08",1
"21/06/01","05:40",0.0,15.3,79.3,1010.2,333.2,3.1,5.7,327.1,0.00,11.8,130.0,"05:32:56",1
"21/06/01","05:50",0.0,14.9,79.1,1010.7,334.5,2.3,5.5,327.2,0.00,11.4,130.0,"05:40:32",1
"21/06/01","06:00",0.0,14.9,78.8,1010.7,338.5,2.0,4.0,337.3,0.01,11.3,130.0,"05:51:44",1
"21/06/01","06:10",0.0,15.2,78.6,1010.7,343.1,1.8,3.2,336.7,0.03,11.5,130.0,"06:02:16",1
"21/06/01","06:20",0.0,16.0,79.2,1010.4,341.6,2.1,4.0,341.5,0.04,12.4,130.0,"06:10:32",1
"21/06/01","06:30",0.0,16.2,79.3,1010.7,343.6,2.3,6.6,338.1,0.05,12.7,130.0,"06:21:04",1
"21/06/01","06:40",0.0,16.5,78.4,1010.9,344.2,2.0,5.0,335.4,0.07,12.8,130.0,"06:39:04",1
"21/06/01","06:50",0.0,16.8,77.3,1010.9,334.1,3.2,5.7,332.8,0.09,12.8,130.0,"06:45:20",1
"21/06/01","07:00",0.0,17.1,76.1,1011.2,335.1,3.4,5.9,332.1,0.11,12.9,130.0,"06:51:12",1
"21/06/01","07:10",0.0,17.9,74.1,1011.2,336.6,2.8,6.3,326.3,0.13,13.3,130.0,"07:00:08",1
"21/06/01","07:20",0.0,18.5,71.1,1010.9,339.2,2.1,4.2,345.8,0.15,13.2,130.0,"07:15:20",1
"21/06/01","07:30",0.0,18.9,67.7,1010.9,330.7,2.6,4.2,341.2,0.18,12.8,130.0,"07:20:02",1
"21/06/01","07:40",0.0,19.5,65.8,1010.9,324.4,2.0,4.0,337.3,0.20,13.0,130.0,"07:30:16",1
"21/06/01","07:50",0.0,20.2,64.1,1010.9,332.1,1.6,3.1,340.4,0.23,13.2,130.0,"07:40:56",1
"21/06/01","08:00",0.0,20.9,62.6,1010.9,324.4,1.2,2.7,345.8,0.25,13.5,130.0,"07:51:20",1
"21/06/01","08:10",0.0,21.9,60.9,1010.9,53.6,0.6,1.4,42.2,0.28,14.1,130.0,"08:08:40",1
"21/06/01","08:20",0.0,22.5,57.6,1010.9,84.4,0.7,2.0,188.6,0.30,13.8,130.0,"08:16:24",1
"21/06/01","08:30",0.0,22.8,54.9,1010.7,70.7,0.6,1.3,111.2,0.33,13.3,130.0,"08:25:20",1
"21/06/01","08:40",0.0,23.6,55.9,1010.2,257.3,0.5,1.3,131.2,0.35,14.3,130.0,"08:36:24",1
"21/06/01","08:50",0.0,24.1,50.4,1010.2,58.0,0.6,1.3,331.2,0.37,13.2,130.0,"08:49:52",1
"21/06/01","09:00",0.0,24.3,48.7,1010.0,68.7,0.7,1.8,353.5,0.39,12.9,130.0,"08:51:20",1
"21/06/01","09:10",0.0,24.1,49.7,1010.0,353.1,1.1,2.5,345.7,0.41,13.0,130.0,"09:05:44",1
"21/06/01","09:20",0.0,24.6,47.4,1009.3,23.9,0.6,1.6,10.8,0.43,12.7,130.0,"09:18:00",1
"21/06/01","09:30",0.0,24.4,46.6,1009.7,343.3,1.1,2.4,349.1,0.45,12.3,130.0,"09:21:04",1
"21/06/01","09:40",0.0,24.9,44.3,1009.5,10.1,1.0,2.5,349.3,0.47,12.0,130.0,"09:34:00",1
"21/06/01","09:50",0.0,25.3,41.7,1009.7,175.0,1.0,2.6,221.7,0.49,11.4,130.0,"09:48:00",1
"21/06/01","10:00",0.0,25.9,41.6,1010.2,189.6,0.7,2.7,113.1,0.50,11.9,130.0,"09:54:32",1
"21/06/01","10:10",0.0,26.2,40.4,1010.4,178.0,0.8,1.9,120.6,0.52,11.7,130.0,"10:09:36",1
"21/06/01","10:20",0.0,27.0,37.8,1010.2,104.9,0.5,1.6,95.7,0.53,11.4,130.0,"10:10:24",1
"21/06/01","10:30",0.0,27.3,35.4,1010.4,44.2,1.1,2.6,7.5,0.54,10.7,130.0,"10:27:52",1
"21/06/01","10:40",0.0,27.2,33.8,1010.2,104.8,0.8,1.7,357.2,0.56,9.9,130.0,"10:31:04",1
"21/06/01","10:50",0.0,27.2,32.2,1010.2,106.2,1.0,2.5,125.4,0.57,9.2,130.0,"10:45:12",1
"21/06/01","11:00",0.0,27.3,31.8,1010.2,43.6,0.8,2.2,55.4,0.58,9.1,130.0,"10:52:56",1
"21/06/01","11:10",0.0,27.6,34.1,1010.0,25.9,1.0,2.4,30.7,0.59,10.4,130.0,"11:04:00",1
"21/06/01","11:20",0.0,28.2,36.2,1010.0,0.5,1.0,2.4,348.6,0.60,11.9,130.0,"11:16:48",1
"21/06/01","11:30",0.0,28.0,34.5,1010.2,219.5,1.6,2.8,226.7,0.61,10.9,130.0,"11:23:52",1
"21/06/01","11:40",0.0,28.4,36.1,1009.7,179.7,1.2,2.8,199.9,0.60,12.0,130.0,"11:33:28",1
"21/06/01","11:50",0.0,28.5,35.2,1010.0,223.3,1.3,3.5,194.5,0.61,11.7,130.0,"11:48:56",1
"21/06/01","12:00",0.0,28.5,32.9,1010.0,51.9,1.5,3.1,348.1,0.61,10.7,130.0,"11:57:20",1
"21/06/01","12:10",0.0,28.9,34.5,1009.7,23.6,1.1,2.6,17.8,0.62,11.7,130.0,"12:02:24",1
"21/06/01","12:20",0.0,29.7,33.9,1009.7,127.7,1.0,2.5,119.7,0.62,12.2,130.0,"12:19:36",1
"21/06/01","12:30",0.0,29.5,34.8,1009.5,178.8,1.2,2.5,112.2,0.61,12.4,130.0,"12:20:24",1
"21/06/01","12:40",0.0,29.7,31.7,1010.2,56.0,0.8,2.8,26.1,0.61,11.2,130.0,"12:34:08",1
"21/06/01","12:50",0.0,29.5,36.2,1009.5,157.6,1.8,4.0,188.8,0.61,13.0,130.0,"12:41:44",1
"21/06/01","13:00",0.0,29.9,33.1,1010.0,180.0,1.1,2.7,198.2,0.60,12.0,130.0,"12:56:56",1
"21/06/01","13:10",0.0,30.2,32.9,1009.5,321.4,0.8,2.7,331.8,0.60,12.2,130.0,"13:01:44",1
"21/06/01","13:20",0.0,30.2,33.1,1009.7,346.1,1.0,2.1,352.8,0.59,12.2,130.0,"13:10:56",1
"21/06/01","13:30",0.0,29.8,36.6,1009.5,347.0,1.7,3.9,342.0,0.59,13.4,130.0,"13:24:24",1
"21/06/01","13:40",0.0,30.1,31.4,1009.3,173.9,1.2,3.5,144.2,0.58,11.4,130.0,"13:35:36",1
"21/06/01","13:50",0.0,30.6,32.0,1009.3,48.8,1.0,2.5,334.5,0.57,12.1,130.0,"13:49:28",1
"21/06/01","14:00",0.0,30.7,31.6,1009.3,310.3,1.1,2.2,352.7,0.56,12.0,130.0,"13:59:04",1
"21/06/01","14:10",0.0,31.2,33.6,1009.0,181.5,1.2,3.5,184.7,0.54,13.3,130.0,"14:03:44",1
"21/06/01","14:20",0.0,30.8,31.0,1009.0,113.4,1.5,3.2,164.4,0.52,11.8,130.0,"14:10:32",1
"21/06/01","14:30",0.0,30.7,31.0,1009.0,174.9,1.1,2.8,117.9,0.51,11.7,130.0,"14:23:52",1
"21/06/01","14:40",0.0,30.9,32.0,1009.3,203.7,1.1,3.1,187.9,0.50,12.3,130.0,"14:38:40",1
"21/06/01","14:50",0.0,30.3,32.7,1008.8,160.1,1.8,5.0,146.7,0.48,12.1,130.0,"14:48:16",1
"21/06/01","15:00",0.0,30.4,31.0,1008.6,183.0,2.2,4.5,190.9,0.46,11.4,130.0,"14:53:36",1
"21/06/01","15:10",0.0,30.8,31.6,1008.8,197.0,1.5,4.2,208.7,0.44,12.1,130.0,"15:04:08",1
"21/06/01","15:20",0.0,30.8,32.7,1008.3,196.9,1.6,3.5,224.4,0.42,12.6,130.0,"15:14:24",1
"21/06/01","15:30",0.0,30.8,28.8,1008.8,262.7,1.2,4.7,347.1,0.40,10.7,130.0,"15:26:32",1
"21/06/01","15:40",0.0,31.4,30.1,1008.8,211.0,1.0,2.8,102.0,0.39,11.8,130.0,"15:38:40",1
"21/06/01","15:50",0.0,31.1,29.2,1008.6,150.4,1.0,2.8,173.9,0.36,11.1,130.0,"15:46:08",1
"21/06/01","16:00",0.0,30.6,30.8,1008.6,164.1,1.8,4.1,229.5,0.34,11.5,130.0,"15:53:28",1
"21/06/01","16:10",0.0,30.9,29.0,1008.6,87.6,1.0,2.7,18.5,0.32,10.9,130.0,"16:03:52",1
"21/06/01","16:20",0.0,30.3,31.8,1008.3,148.8,1.7,3.2,124.3,0.28,11.7,130.0,"16:18:16",1
"21/06/01","16:30",0.0,30.2,31.2,1008.1,162.6,1.6,4.7,225.7,0.26,11.3,130.0,"16:25:28",1
"21/06/01","16:40",0.0,30.0,31.9,1008.1,217.0,1.8,4.7,210.2,0.20,11.5,130.0,"16:32:32",1
"21/06/01","16:50",0.0,29.9,30.5,1008.1,237.3,1.0,2.4,314.3,0.17,10.7,130.0,"16:45:36",1
"21/06/01","17:00",0.0,29.5,30.5,1007.6,208.5,1.3,3.2,217.2,0.13,10.4,130.0,"16:58:08",1
"21/06/01","17:10",0.0,29.3,29.8,1007.6,192.4,1.7,3.5,218.8,0.08,9.9,130.0,"17:08:56",1
"21/06/01","17:20",0.0,29.8,30.3,1007.6,199.9,2.1,4.4,227.9,0.08,10.6,130.0,"17:15:52",1
"21/06/01","17:30",0.0,29.6,30.3,1007.6,218.0,1.8,4.0,228.7,0.04,10.4,130.0,"17:21:20",1
"21/06/01","17:40",0.0,29.3,30.7,1006.9,222.7,2.2,4.0,231.3,0.02,10.3,130.0,"17:34:48",1
"21/06/01","17:50",0.0,28.9,32.6,1007.1,213.7,1.7,3.5,226.5,0.02,10.9,130.0,"17:49:28",1
"21/06/01","18:00",0.0,28.7,35.1,1006.9,225.7,1.7,4.0,210.1,0.01,11.8,130.0,"17:51:44",1
"21/06/01","18:10",0.0,28.1,38.0,1007.1,224.3,1.7,3.6,200.7,0.01,12.5,130.0,"18:00:16",1
"21/06/01","18:20",0.0,27.8,39.2,1006.7,261.4,1.1,2.2,225.5,0.01,12.7,130.0,"18:10:16",1
"21/06/01","18:30",0.0,27.1,41.5,1006.9,330.8,1.7,2.8,342.8,0.02,13.0,130.0,"18:22:08",1
"21/06/01","18:40",0.0,26.8,43.5,1007.4,351.6,1.3,2.7,328.1,0.02,13.4,130.0,"18:33:44",1
"21/06/01","18:50",0.0,26.6,48.4,1007.8,27.3,1.5,3.4,328.8,0.00,14.9,130.0,"18:41:20",1
"21/06/01","19:00",0.0,26.2,49.6,1008.1,4.8,1.8,3.9,358.4,0.00,14.9,130.0,"18:59:28",1
"21/06/01","19:10",0.0,25.9,50.1,1008.6,2.6,1.5,3.3,38.9,0.00,14.8,130.0,"19:00:48",1
"21/06/01","19:20",0.0,25.6,50.3,1008.8,16.4,0.8,2.0,33.6,0.00,14.5,130.0,"19:19:44",1
"21/06/01","19:30",0.0,25.0,49.0,1008.8,98.9,1.0,2.8,137.1,0.00,13.6,130.0,"19:27:36",1
"21/06/01","19:40",0.0,24.6,51.0,1009.3,175.0,2.0,3.4,135.4,0.00,13.8,130.0,"19:31:44",1
"21/06/01","19:50",0.0,24.1,52.8,1009.7,178.1,1.7,3.1,135.3,0.00,13.9,130.0,"19:44:40",1
"21/06/01","20:00",0.0,23.7,54.3,1010.0,202.0,1.1,2.4,179.9,0.00,14.0,130.0,"19:50:08",1
"21/06/01","20:10",0.0,23.3,56.0,1010.0,198.4,1.1,2.7,171.2,0.00,14.1,130.0,"20:00:32",1
"21/06/01","20:20",0.0,22.9,57.3,1010.2,212.0,0.5,1.6,168.9,0.00,14.1,130.0,"20:12:32",1
"21/06/01","20:30",0.0,22.4,59.2,1010.9,313.3,0.8,1.7,313.2,0.00,14.1,130.0,"20:22:00",1
"21/06/01","20:40",0.0,22.1,62.2,1010.2,340.5,0.7,1.6,335.5,0.00,14.6,130.0,"20:33:44",1
"21/06/01","20:50",0.0,22.0,62.9,1010.9,349.7,0.6,1.6,339.6,0.00,14.7,130.0,"20:49:12",1
"21/06/01","21:00",0.0,22.2,62.5,1011.2,35.8,0.6,1.3,4.1,0.00,14.7,130.0,"20:56:24",1
"21/06/01","21:10",0.0,22.2,62.5,1011.4,33.5,0.6,1.3,34.2,0.00,14.7,130.0,"21:05:44",1
"21/06/01","21:20",0.0,21.9,63.1,1011.9,316.2,1.0,1.4,302.6,0.00,14.6,130.0,"21:18:48",1
"21/06/01","21:30",0.0,21.1,64.3,1011.6,292.1,0.6,1.7,329.0,0.00,14.1,130.0,"21:21:12",1
"21/06/01","21:40",0.0,20.6,66.4,1011.6,312.6,1.0,1.7,340.7,0.00,14.2,130.0,"21:39:52",1
"21/06/01","21:50",0.0,20.4,67.6,1012.1,327.2,1.5,3.1,346.2,0.00,14.2,130.0,"21:44:40",1
"21/06/01","22:00",0.0,20.3,68.8,1011.9,324.0,1.2,1.7,322.3,0.00,14.4,130.0,"21:58:24",1
"21/06/01","22:10",0.0,19.8,69.4,1012.6,318.1,1.0,1.8,332.3,0.00,14.1,130.0,"22:00:56",1
"21/06/01","22:20",0.0,19.8,70.7,1012.6,321.3,1.6,2.4,344.1,0.00,14.4,130.0,"22:17:12",1
"21/06/01","22:30",0.0,19.8,71.5,1012.3,324.9,1.6,2.1,328.2,0.00,14.5,130.0,"22:21:20",1
"21/06/01","22:40",0.0,19.8,72.6,1012.6,329.3,1.5,2.2,327.9,0.00,14.8,130.0,"22:35:20",1
"21/06/01","22:50",0.0,19.9,73.5,1012.3,331.2,1.2,2.7,328.4,0.00,15.1,130.0,"22:42:40",1
"21/06/01","23:00",0.0,20.0,74.3,1012.3,328.0,1.1,2.1,338.7,0.00,15.3,130.0,"22:59:52",1
"21/06/01","23:10",0.0,19.9,75.0,1012.3,338.7,0.8,1.7,327.8,0.00,15.4,130.0,"23:00:40",1
"21/06/01","23:20",0.0,19.7,75.7,1012.3,302.4,1.0,1.4,319.5,0.00,15.3,130.0,"23:15:12",1
"21/06/01","23:30",0.0,19.6,76.3,1012.3,293.3,1.0,1.3,312.6,0.00,15.4,130.0,"23:21:20",1
"21/06/01","23:40",0.0,19.5,76.7,1012.1,288.9,1.1,1.9,332.2,0.00,15.3,130.0,"23:30:40",1
"21/06/01","23:50",0.0,19.3,77.0,1011.9,301.2,0.7,1.4,321.1,0.00,15.2,130.0,"23:41:20",1
"21/06/01","24:00",0.0,19.2,77.5,1012.3,270.9,0.7,1.1,274.8,0.00,15.2,130.0,"23:55:12",1
